EHI
0 0 0 0 0 0 0 0 0 0 0 0 0 0 0 0 0 0 0 0 0 0 0 0 0 0 0 0 0 0 0 0 0 0 0 0 0 0 0 0 0 0 0
0 0 0 0 0 0 0 0 0 0 0 0 0 0 0 0 0 0 0 0 0 0 0 0 0 0 0 0 0 0 0 0 0 0 0 0 0 0 0 0 0 0 0
0 0 0 0 0 0 0 0 0 0 0 0 0 0 0 0 0 0 0 0 0 0 0 0 0 0 0 0 0 0 0 0 0 0 0 0 0 0 0 0 0 0 0
0 0 0 0 0 0 0 0 0 0 0 0 0 0 0 0 0 0 0 0 0 0 0 0 0 0 0 0 0 0 0 0 0 0 0 0 0 0 0 0 0 0 0
0 0 0 0 0 0 0 0 0 0 0 0 0 0 0 0 0 0 0 0 0 0 0 0 0 0 0 0 0 0 0 0 0 0 0 0 0 0 0 0 0 0 0
0 0 0 0 0 0 0 0 0 0 0 0 0 0 0 0 0 0 0 0 0 0 0 0 0 0 0 0 0 0 0 0 0 0 0 0 0 0 0 0 0 0 0
0 0 0 0 0 0 0 0 0 0 0 0 0 0 0 0 0 0 0 0 0 0 0 0 0 0 0 0 0 0 0 0 0 0 0 0 0 0 0 0 0 0 0
0 0 0 0 0 0 0 0 0 0 0 0 0 0 0 0 0 0 0 0 0 0 0 0 0 0 0 0 0 0 0 0 0 0 0 0 0 0 0 0 0 0 0
0 0 0 0 0 0 0 0 0 0 0 0 0 0 0 0 0 0 0 0 0 0 0 0 0 0 0 0 0 0 0 0 0 0 0 0 0 0 0 0 0 0 0
0 0 0 0 0 0 0 0 0 0 0 0 0 0 0 0 0 0 0 0 0 0 0 0 0 0 0 0 0 0 0 0 0 0 0 0 0 0 0 0 0 0 0
0 0 0 0 0 0 0 0 0 0 0 0 0 0 0 0 0 0 0 0 0 0 0 0 0 0 0 0 0 0 0 0 0 0 0 0 0 0 0 0 0 0 0
0 0 0 0 0 0 0 0 0 0 0 0 0 0 0 0 0 0 0 0 0 0 0 0 0 0 0 0 0 0 0 0 0 0 0 0 0 0 0 0 0 0 0
0 0 0 0 0 0 0 0 0 0 0 0 0 0 0 0 0 0 0 0 0 0 0 0 0 0 0 0 0 0 0 0 0 0 0 0 0 0 0 0 0 0 0
0 0 0 0 0 0 0 0 0 0 0 0 0 0 0 0 0 0 0 0 0 0 0 0 0 0 0 0 0 0 0 0 0 0 0 0 0 0 0 0 0 0 0
0 0 0 0 0 0 0 0 0 0 0 0 0 0 0 0 0 0 0 0 0 0 0 0 0 0 0 0 0 0 0 0 0 0 0 0 0 0 0 0 0 0 0
0 0 0 0 0 0 0 0 0 0 0 0 0 0 0 0 0 0 0 0 0 0 0 0 0 0 0 0 0 0 0 0 0 0 0 0 0 0 0 0 0 0 0
0 0 0 0 0 0 0 0 0 0 0 0 0 0 0 0 0 0 0 0 0 0 0 0 0 0 0 0 0 0 0 0 0 0 0 0 0 0 0 0 0 0 0
0 0 0 0 0 0 0 0 0 0 0 0 0 0 0 0 0 0 0 0 0 0 0 0 0 0 0 0 0 0 0 0 0 0 0 0 0 0 0 0 0 0 0
0 0 0 0 0 0 0 0 0 0 0 0 0 0 0 0 0 0 0 0 0 0 0 0 0 0 0 0 0 0 0 0 0 0 0 0 0 0 0 0 0 0 0
0 0 0 0 0 0 0 0 0 0 0 0 0 0 0 0 0 0 0 0 0 0 0 0 0 0 0 0 0 0 0 0 0 0 0 0 0 0 0 0 0 0 0
0 0 0 0 0 0 0 0 0 0 0 0 0 0 0 0 0 0 0 0 0 0 0 0 0 0 0 0 0 0 0 0 0 0 0 0 0 0 0 0 0 0 0
0 0 0 0 0 0 0 0 0 0 0 0 0 0 0 0 0 0 0 0 0 0 0 0 0 0 0 0 0 0 0 0 0 0 0 0 0 0 0 0 0 0 0
0 0 0 0 0 0 0 0 0 0 0 0 0 0 0 0 0 0 0 0 0 0 0 0 0 0 0 0 0 0 0 0 0 0 0 0 0 0 0 0 0 0 0
0 0 0 0 0 0 0 0 0 0 0 0 0 0 0 0 0 0 0 0 0 0 0 0 0 0 0 0 0 0 0 0 0 0 0 0 0 0 0 0 0 0 0
0 0 0 0 0 0 0 0 0 0 0 0 0 0 0 0 0 0 0 0 0 0 0 0 0 0 0 0 0 0 0 0 0 0 0 0 0 0 0 0 0 0 0
0 0 0 0 0 0 0 0 0 0 0 0 0 0 0 0 0 0 0 0 0 0 0 0 0 0 0 0 0 0 0 0 0 0 0 0 0 0 0 0 0 0 0
Wind_Speed
5 5 4 4 5 6 7 7 7 7 6 6 7 8 8 8 7 7 9 11 11 12 10 9 8 9 8 10 12 12 12 10 10 11 13 10 9 6 5 5 6 7 9
5 4 4 5 6 5 5 5 6 6 6 5 5 5 6 5 6 6 7 9 11 11 11 10 9 9 9 10 11 11 9 9 9 10 11 8 7 7 8 5 6 7 8
5 3 4 4 3 3 4 7 6 6 7 7 5 6 4 4 5 5 6 8 10 10 9 10 9 9 9 9 11 9 10 10 9 7 7 7 7 12 7 6 6 8 8
5 3 3 2 2 2 4 5 6 6 6 6 7 8 10 7 7 7 7 8 9 9 9 10 9 9 9 9 10 10 9 9 9 8 6 7 8 7 9 7 6 8 9
4 3 2 1 2 4 5 5 6 6 6 7 7 7 7 6 6 8 8 7 7 8 10 9 8 9 9 10 10 10 10 8 8 8 9 9 8 8 8 11 11 9 7
3 2 2 3 4 5 5 5 6 6 7 7 7 8 8 9 11 11 9 9 7 6 9 10 8 9 9 10 10 9 10 9 9 8 8 9 8 8 7 9 12 12 10
3 3 4 5 5 6 6 6 7 7 7 7 8 8 8 9 10 10 10 10 9 8 8 10 9 9 9 10 9 10 10 10 10 9 8 8 8 8 8 9 10 12 10
3 4 4 4 4 6 6 7 7 7 8 8 8 7 8 7 7 9 10 10 8 9 9 10 10 10 10 11 10 9 9 9 9 11 10 9 8 7 7 7 9 10 8
3 4 4 4 5 6 6 7 7 8 8 8 9 8 8 8 9 10 9 8 9 10 11 12 11 11 10 11 10 8 10 10 8 9 10 9 8 7 7 7 7 8 9
3 3 4 4 5 5 5 6 7 7 8 8 8 11 9 9 10 9 11 11 11 11 12 12 11 11 11 11 10 9 10 11 10 8 10 10 7 7 6 6 6 7 8
2 2 3 4 4 5 6 6 7 7 8 8 8 9 9 9 10 10 11 11 10 12 12 12 12 12 12 11 10 11 12 11 11 11 11 11 10 7 6 6 6 6 7
1 1 3 4 5 6 6 7 7 8 9 9 9 10 10 10 10 11 12 11 11 11 12 12 12 12 12 11 11 13 13 12 12 12 11 11 8 8 6 6 6 7 6
1 1 3 4 6 6 7 7 8 8 9 9 10 10 10 11 11 11 12 11 11 12 12 12 12 13 13 13 12 12 12 12 12 11 11 10 9 8 6 7 6 6 6
0 2 3 5 6 6 7 7 8 8 10 10 10 10 11 11 11 11 11 11 12 12 12 12 13 13 14 14 13 13 12 12 11 9 9 8 8 7 7 6 6 6 6
1 3 4 5 6 6 7 7 8 9 10 10 10 11 11 11 11 11 11 11 11 13 12 13 13 14 13 12 15 12 10 9 8 7 7 7 8 9 7 5 5 5 4
1 3 4 5 6 6 7 8 8 9 9 9 10 11 11 11 11 10 10 11 11 11 12 13 14 15 15 23 22 13 8 7 6 6 6 6 6 9 12 13 13 11 8
1 3 4 5 5 6 6 8 8 8 9 9 10 10 10 11 11 12 11 11 11 11 12 13 14 15 19 27 23 22 11 9 7 6 6 6 5 7 5 9 13 14 16
0 2 3 4 4 5 6 7 7 7 8 8 9 10 10 10 10 10 10 10 9 10 10 11 14 15 20 29 24 21 12 9 10 9 7 6 4 6 7 7 8 8 9
2 0 1 2 4 5 6 7 7 7 7 8 9 10 10 10 10 10 10 9 8 8 10 11 13 14 18 27 26 20 8 9 11 12 11 9 8 16 16 9 7 8 8
2 1 1 3 4 6 6 6 7 7 8 9 10 10 9 10 9 9 9 8 8 9 11 11 11 12 14 25 26 20 8 10 10 10 12 16 16 19 18 9 7 8 8
2 1 2 3 4 6 5 6 6 7 9 9 9 9 9 8 8 8 7 8 9 10 9 10 10 10 14 20 25 23 8 10 10 10 9 11 21 21 20 15 10 12 10
2 1 2 3 5 5 5 6 7 8 8 8 8 8 8 7 9 8 8 8 8 8 7 7 9 8 10 16 19 23 20 15 10 8 7 10 21 21 21 15 17 19 14
2 0 2 3 5 5 4 5 7 7 8 8 8 8 8 7 7 7 7 7 6 6 7 6 7 8 8 9 18 19 19 19 10 8 15 16 19 17 13 19 20 15 9
1 0 2 3 4 5 5 5 7 7 7 8 8 7 7 7 7 6 6 6 6 6 6 6 7 7 7 6 5 5 7 11 9 7 11 15 16 13 14 14 12 9 9
1 1 1 3 4 5 5 6 6 7 7 8 8 8 8 7 7 7 6 8 5 9 8 5 5 6 6 9 14 8 5 4 6 6 5 6 6 7 7 7 8 8 9
2 1 2 3 4 4 5 6 6 6 6 8 8 6 6 6 7 7 8 13 14 17 17 15 12 9 12 14 13 13 12 12 12 6 4 5 5 6 6 7 7 7 8
Wind_Direction
117 100 84 71 52 34 23 14 3 355 355 354 354 350 349 344 344 344 347 348 346 344 342 348 341 345 341 336 336 332 330 331 330 323 320 300 286 284 313 319 322 334 339
106 92 65 48 42 26 3 6 360 354 352 347 338 336 328 323 331 324 334 340 343 343 349 345 342 342 338 335 335 332 331 328 335 329 323 319 312 343 325 322 328 341 340
115 98 61 47 32 9 356 11 358 351 346 340 338 339 330 321 333 335 340 339 338 339 339 338 338 337 335 331 330 330 334 327 326 330 319 321 330 326 305 323 331 340 336
111 101 75 48 21 354 0 5 354 346 342 343 349 349 350 341 334 332 328 327 329 332 336 334 336 334 330 327 326 335 323 322 323 322 311 309 308 306 312 314 330 334 331
117 105 91 62 30 11 7 355 347 342 341 343 344 340 337 324 322 327 326 325 322 325 329 331 332 330 327 324 321 322 322 319 315 317 317 312 305 290 298 306 319 324 324
115 97 53 38 20 7 357 348 345 340 341 342 340 336 334 330 332 334 331 331 326 322 322 329 327 324 323 321 320 319 318 315 312 314 312 311 308 309 306 304 312 314 318
101 56 34 21 6 357 349 344 346 342 341 342 339 333 333 330 329 330 331 330 330 328 321 327 322 320 318 318 318 317 316 311 312 310 309 306 299 298 301 301 304 307 312
71 51 34 16 358 351 346 346 347 343 341 343 337 332 335 332 329 327 326 325 324 319 317 320 318 315 316 319 316 314 312 312 308 309 307 302 299 294 295 297 304 305 305
65 46 24 11 357 349 346 344 345 342 342 341 335 338 337 330 326 323 321 320 319 322 323 319 316 314 313 313 313 310 309 307 302 303 303 300 294 291 288 291 292 295 300
64 37 13 359 349 343 339 343 345 340 336 337 338 344 330 325 323 321 321 320 318 318 318 319 318 315 313 311 311 309 306 305 304 304 304 302 296 290 287 289 289 287 288
83 23 354 344 341 340 342 344 343 340 338 336 332 330 325 324 322 320 319 317 315 318 320 319 318 317 314 312 311 308 306 305 306 306 306 302 295 289 290 291 293 292 288
103 8 341 341 345 346 344 344 341 339 335 333 332 329 326 324 323 322 320 318 318 319 318 318 317 316 316 311 308 305 307 302 303 305 307 308 305 300 295 293 294 293 290
112 337 344 350 347 344 343 341 339 336 333 334 333 329 328 328 326 323 322 321 322 321 320 321 318 316 313 309 304 299 297 296 296 298 301 303 304 302 299 297 296 296 297
245 344 353 349 343 342 340 337 335 335 338 337 334 333 331 328 326 324 325 326 326 326 326 323 321 319 315 308 299 296 295 295 293 294 298 301 303 301 303 305 309 310 307
346 3 359 346 342 342 338 335 333 335 336 335 335 333 328 326 326 328 328 329 330 334 329 328 327 324 320 310 305 302 303 299 300 303 305 308 323 338 346 356 356 350 348
4 2 356 348 344 339 334 334 333 333 332 331 331 330 332 333 333 333 334 334 332 331 332 333 331 329 330 330 340 354 342 333 325 322 324 324 339 355 5 15 21 22 21
29 2 347 336 332 328 326 328 326 326 330 330 330 333 334 335 336 338 339 336 333 333 335 334 336 335 333 347 4 12 10 5 358 349 345 348 1 16 9 20 29 24 24
116 344 335 330 325 320 323 321 322 328 329 329 331 334 336 335 335 337 339 335 330 335 335 335 339 340 341 355 10 17 14 13 11 5 357 1 18 42 51 40 33 22 16
155 184 322 314 319 323 324 325 328 331 333 337 337 337 337 337 338 341 338 333 330 333 338 341 340 342 341 355 17 28 12 14 14 12 16 31 41 53 52 40 31 23 11
130 93 352 337 334 326 327 333 333 336 339 338 334 333 336 335 335 336 331 329 330 337 339 340 339 339 340 357 15 33 22 18 17 17 15 30 46 47 48 36 24 26 7
124 84 20 347 323 320 331 337 334 335 329 329 329 332 333 329 335 331 326 328 334 335 332 334 335 337 350 357 11 28 35 25 20 23 18 25 38 39 39 36 28 27 19
121 56 12 341 321 325 337 336 331 321 322 327 329 328 327 330 343 326 322 324 327 327 327 332 338 340 343 358 8 21 31 37 24 19 17 25 34 33 32 32 27 25 20
146 54 356 332 324 328 333 328 317 319 326 329 327 323 323 321 324 319 317 321 325 327 333 337 340 340 343 347 10 19 25 29 29 17 26 31 34 30 25 24 26 21 16
165 278 349 342 328 325 327 314 311 320 325 326 323 323 324 324 321 320 324 324 323 323 327 336 336 331 332 330 344 0 19 26 29 19 20 26 29 30 25 22 18 14 15
182 217 303 307 310 317 320 319 319 323 326 324 324 324 328 322 322 328 325 329 316 336 341 321 315 328 326 347 7 15 13 16 29 24 12 13 16 18 15 14 14 11 11
195 236 278 298 309 316 316 315 316 319 324 332 332 325 326 328 328 324 326 335 342 343 345 342 341 332 340 347 356 3 7 15 23 30 10 11 11 12 10 9 7 8 9